SCP
0 0 0 0 0 0 0 0 0 0 0 0 0 0 0 0 0 0 0 0 0 0 0 0 0 0 0 0 0 0 0 0 0 0 0 0 0 0 0 0 0 0 0
0 0 0 0 0 0 0 0 0 0 0 0 0 0 0 0 0 0 0 0 0 0 0 0 0 0 0 0 0 0 0 0 0 0 0 0 0 0 0 0 0 0 0
0 0 0 0 0 0 0 0 0 0 0 0 0 0 0 0 0 0 0 0 0 0 0 0 0 0 0 0 0 0 0 0 0 0 0 0 0 0 0 0 0 0 0
0 0 0 0 0 0 0 0 0 0 0 0 0 0 0 0 0 0 0 0 0 0 0 0 0 0 0 0 0 0 0 0 0 0 0 0 0 0 0 0 0 0 0
0 0 0 0 0 0 0 0 0 0 0 0 0 0 0 0 0 0 0 0 0 0 0 0 0 0 0 0 0 0 0 0 0 0 0 0 0 0 0 0 0 0 0
0 0 0 0 0 0 0 0 0 0 0 0 0 0 0 0 0 0 0 0 0 0 0 0 0 0 0 0 0 0 0 0 0 0 0 0 0 0 0 0 0 0 0
0 0 0 0 0 0 0 0 0 0 0 0 0 0 0 0 0 0 0 0 0 0 0 0 0 0 0 0 0 0 0 0 0 0 0 0 0 0 0 0 0 0 0
0 0 0 0 0 0 0 0 0 0 0 0 0 0 0 0 0 0 0 0 0 0 0 0 0 0 0 0 0 0 0 0 0 0 0 0 0 0 0 0 0 0 0
0 0 0 0 0 0 0 0 0 0 0 0 0 0 0 0 0 0 0 0 0 0 0 0 0 0 0 0 0 0 0 0 0 0 0 0 0 0 0 0 0 0 0
0 0 0 0 0 0 0 0 0 0 0 0 0 0 0 0 0 0 0 0 0 0 0 0 0 0 0 0 0 0 0 0 0 0 0 0 0 0 0 0 0 0 0
0 0 0 0 0 0 0 0 0 0 0 0 0 0 0 0 0 0 0 0 0 0 0 0 0 0 0 0 0 0 0 0 0 0 0 0 0 0 0 0 0 0 0
0 0 0 0 0 0 0 0 0 0 0 0 0 0 0 0 0 0 0 0 0 0 0 0 0 0 0 0 0 0 0 0 0 0 0 0 0 0 0 0 0 0 0
0 0 0 0 0 0 0 0 0 0 0 0 0 0 0 0 0 0 0 0 0 0 0 0 0 0 0 0 0 0 0 0 0 0 0 0 0 0 0 0 0 0 0
0 0 0 0 0 0 0 0 0 0 0 0 0 0 0 0 0 0 0 0 0 0 0 0 0 0 0 0 0 0 0 0 0 0 0 0 0 0 0 0 0 0 0
0 0 0 0 0 0 0 0 0 0 0 0 0 0 0 0 0 0 0 0 0 0 0 0 0 0 0 0 0 0 0 0 0 0 0 0 0 0 0 0 0 0 0
0 0 0 0 0 0 0 0 0 0 0 0 0 0 0 0 0 0 0 0 0 0 0 0 0 0 0 0 0 0 0 0 0 0 0 0 0 0 0 0 0 0 0
0 0 0 0 0 0 0 0 0 0 0 0 0 0 0 0 0 0 0 0 0 0 0 0 0 0 0 0 0 0 0 0 0 0 0 0 0 0 0 0 0 0 0
0 0 0 0 0 0 0 0 0 0 0 0 0 0 0 0 0 0 0 0 0 0 0 0 0 0 0 0 0 0 0 0 0 0 0 0 0 0 0 0 0 0 0
0 0 0 0 0 0 0 0 0 0 0 0 0 0 0 0 0 0 0 0 0 0 0 0 0 0 0 0 0 0 0 0 0 0 0 0 0 0 0 0 0 0 0
0 0 0 0 0 0 0 0 0 0 0 0 0 0 0 0 0 0 0 0 0 0 0 0 0 0 0 0 0 0 0 0 0 0 0 0 0 0 0 0 0 0 0
0 0 0 0 0 0 0 0 0 0 0 0 0 0 0 0 0 0 0 0 0 0 0 0 0 0 0 0 0 0 0 0 0 0 0 0 0 0 0 0 0 0 0
0 0 0 0 0 0 0 0 0 0 0 0 0 0 0 0 0 0 0 0 0 0 0 0 0 0 0 0 0 0 0 0 0 0 0 0 0 0 0 0 0 0 0
0 0 0 0 0 0 0 0 0 0 0 0 0 0 0 0 0 0 0 0 0 0 0 0 0 0 0 0 0 0 0 0 0 0 0 0 0 0 0 0 0 0 0
0 0 0 0 0 0 0 0 0 0 0 0 0 0 0 0 0 0 0 0 0 0 0 0 0 0 0 0 0 0 0 0 0 0 0 0 0 0 0 0 0 0 0
0 0 0 0 0 0 0 0 0 0 0 0 0 0 0 0 0 0 0 0 0 0 0 0 0 0 0 0 0 0 0 0 0 0 0 0 0 0 0 0 0 0 0
0 0 0 0 0 0 0 0 0 0 0 0 0 0 0 0 0 0 0 0 0 0 0 0 0 0 0 0 0 0 0 0 0 0 0 0 0 0 0 0 0 0 0
Wind_Speed_500mb
18 16 12 9 8 9 11 14 18 21 25 29 33 37 41 44 46 50 52 56 59 63 65 69 74 75 79 79 79 84 82 82 94 125 99 96 98 97 97 95 88 85 83
14 12 10 10 11 12 15 19 23 28 32 36 41 45 48 51 55 58 62 64 68 72 73 76 77 77 80 80 80 82 84 86 91 104 116 98 101 96 103 102 91 87 83
13 11 10 10 13 17 22 26 30 34 38 43 48 52 55 57 60 62 66 69 72 75 77 80 83 82 84 83 81 81 83 84 85 95 109 103 102 105 103 97 96 89 89
9 6 6 10 15 20 24 29 34 38 43 46 50 53 56 58 62 66 69 72 75 78 80 82 83 84 84 84 80 76 75 80 84 88 96 102 99 96 98 99 101 96 95
5 3 7 13 20 26 30 34 38 42 45 49 52 53 55 58 63 68 71 74 77 79 78 79 82 83 83 78 72 77 76 81 85 88 92 91 93 87 93 97 98 95 95
2 6 14 22 30 36 40 44 47 51 55 57 59 63 64 65 69 74 79 84 84 82 84 83 82 82 81 80 76 66 66 74 81 83 88 91 97 92 91 95 93 89 82
5 13 21 30 36 41 46 50 53 56 60 63 65 69 73 75 78 81 83 84 85 82 81 82 84 82 79 79 78 73 69 65 67 76 84 89 94 91 86 85 87 84 72
11 20 28 34 40 46 51 54 57 60 64 66 67 70 75 76 79 82 85 85 86 87 85 81 75 73 70 70 72 75 75 74 69 66 71 77 78 78 70 65 59 55 49
18 26 34 41 46 50 53 55 58 63 65 67 70 72 73 72 72 74 77 80 82 82 80 78 72 68 65 63 67 72 75 74 68 60 57 59 60 59 54 44 42 37 33
25 32 39 44 49 53 57 60 63 66 69 70 72 74 75 74 68 70 73 76 78 76 75 72 64 59 59 59 64 67 68 65 57 57 47 43 38 33 25 19 19 17 19
32 37 42 48 54 58 61 62 65 67 70 74 77 77 77 74 71 68 68 69 69 71 70 69 63 59 61 60 54 50 48 47 44 38 29 25 20 12 9 6 1 3 4
37 42 47 52 55 58 62 65 67 70 75 77 78 79 78 77 74 69 62 61 60 60 59 58 58 55 48 41 36 35 34 31 26 18 13 13 13 14 14 12 6 2 1
40 45 48 51 56 60 65 68 70 71 74 78 77 79 81 78 74 67 61 56 53 47 47 46 44 38 32 31 31 28 27 22 16 12 12 12 15 18 18 16 15 12 10
39 44 50 55 59 63 67 68 71 71 74 76 76 75 77 78 73 62 59 52 45 39 35 32 29 24 24 29 26 21 19 17 12 11 13 15 16 16 16 17 15 15 14
42 48 53 58 62 67 70 72 74 72 69 71 71 68 70 74 69 52 49 44 37 33 30 24 20 17 16 19 22 20 19 21 21 17 14 14 16 17 17 16 14 13 12
43 47 51 57 61 64 68 70 68 71 71 69 65 61 65 62 62 50 42 37 35 29 27 23 19 15 11 7 12 14 13 12 13 13 13 14 14 14 14 13 12 10 9
42 47 52 57 61 64 67 71 78 75 74 73 65 60 56 55 54 49 39 39 34 31 28 25 21 15 8 9 12 12 14 14 13 12 10 9 9 10 11 10 9 9 9
43 49 54 58 62 65 68 72 75 79 84 81 68 56 50 48 51 48 36 35 40 35 30 24 19 15 11 10 10 10 10 9 9 10 11 11 12 12 12 12 12 13 12
45 50 55 60 63 66 70 71 71 72 71 71 66 55 46 46 48 47 41 43 47 41 33 26 20 16 11 9 7 6 6 8 10 12 14 15 16 16 15 14 14 13 13
46 50 54 58 61 62 63 65 65 63 63 59 55 52 48 47 47 47 44 42 43 42 35 28 22 17 14 13 11 10 11 14 16 18 19 20 19 19 18 17 16 16 15
46 48 51 54 57 59 61 60 59 56 55 51 45 49 48 46 45 44 41 38 37 36 33 29 24 20 20 17 15 16 18 21 24 25 25 24 23 20 18 16 14 13 12
45 47 49 52 54 54 54 53 53 51 47 43 47 46 44 42 39 37 35 35 35 33 31 28 23 22 20 19 19 22 25 28 29 30 29 25 21 18 15 12 10 9 8
44 46 47 47 48 49 49 48 47 45 43 42 43 42 39 38 36 33 31 31 31 30 29 23 22 24 23 23 25 28 30 33 32 31 26 21 17 15 12 10 8 7 7
42 42 44 45 45 44 44 45 43 42 40 38 39 38 37 36 36 34 32 32 32 30 25 23 27 26 27 28 31 34 36 36 32 27 21 19 16 14 12 11 10 10 10
39 39 41 42 41 40 40 38 38 38 38 36 35 35 34 33 33 32 32 33 33 30 25 28 29 30 32 35 39 40 38 35 28 24 23 21 19 17 16 15 15 14 15
36 38 39 39 39 39 38 36 35 35 34 34 33 33 33 32 33 33 34 35 36 34 33 35 37 40 44 43 44 44 39 33 30 28 26 25 23 21 22 21 21 21 21
Wind_Direction_500mb
113 104 90 70 50 23 6 358 349 345 340 337 335 332 329 327 323 320 317 315 312 311 309 305 303 301 296 293 286 285 281 278 273 284 283 285 289 286 289 290 292 288 288
108 96 82 60 42 25 9 357 351 345 340 336 333 330 328 325 323 320 318 317 315 314 313 310 308 306 302 298 292 288 285 279 280 278 286 284 288 288 291 296 290 291 290
99 80 59 34 16 3 354 345 339 334 329 326 326 326 324 323 321 319 317 316 315 314 313 311 310 308 305 303 298 290 282 285 282 282 285 286 288 288 291 290 291 292 292
103 73 30 360 351 345 339 334 331 331 330 327 326 326 326 325 323 320 318 316 314 312 310 308 308 307 306 305 303 298 293 290 287 285 285 287 288 288 289 290 291 293 295
124 39 5 351 347 344 338 333 331 329 328 327 325 324 323 324 322 320 318 317 316 314 313 311 309 307 307 304 301 298 294 292 289 287 285 284 284 286 287 291 291 294 294
85 13 2 354 348 342 337 332 329 327 326 325 324 323 323 323 323 321 320 319 319 318 316 314 312 310 308 306 305 298 290 291 292 293 292 289 288 289 290 290 291 291 291
0 355 348 342 338 335 331 327 324 323 324 323 323 322 321 322 320 319 318 317 317 317 315 314 311 310 309 308 306 305 301 296 290 290 289 288 290 290 290 287 288 290 289
321 327 326 326 325 324 323 321 319 318 318 318 317 316 316 318 318 318 318 318 318 317 316 315 312 311 311 311 310 307 305 303 300 294 291 290 291 292 289 288 284 283 277
305 312 314 315 317 318 317 316 315 313 312 312 312 313 314 316 317 317 317 316 316 316 314 313 315 315 317 316 311 308 307 306 307 307 303 300 298 296 289 290 277 271 270
296 303 309 313 315 315 314 313 311 310 310 310 311 313 313 313 314 315 316 315 315 315 315 315 316 315 312 312 312 312 311 314 315 314 313 309 308 306 291 277 282 278 267
294 301 306 310 312 311 310 310 310 311 311 312 312 312 311 312 313 315 314 314 315 316 316 318 319 319 316 314 312 311 315 315 313 318 326 333 340 344 331 332 87 150 93
293 301 305 308 309 309 309 311 312 312 311 311 311 310 310 310 311 314 315 313 313 313 315 317 317 319 321 325 325 325 323 323 330 348 351 4 14 27 40 41 50 20 301
297 300 303 306 307 308 308 308 307 308 309 309 310 309 309 310 311 316 314 312 312 312 315 318 319 323 328 335 337 341 339 351 9 5 8 35 56 60 58 63 66 58 67
298 303 307 308 307 306 306 308 308 310 310 308 307 305 306 306 309 315 314 313 313 315 319 322 326 333 340 338 336 349 20 25 37 37 67 67 56 47 37 35 39 48 51
304 307 307 308 309 311 310 309 308 308 308 308 306 303 302 302 304 309 306 305 306 314 320 320 322 329 350 21 37 36 57 69 71 63 49 34 22 17 18 22 26 31 49
304 307 309 309 310 310 309 309 308 308 308 308 307 301 299 290 293 296 299 293 295 310 308 306 310 308 331 16 29 31 31 31 28 14 2 357 356 359 6 11 14 17 27
305 306 305 305 305 305 307 307 307 306 307 308 309 304 295 286 289 291 293 282 289 295 293 291 287 296 304 301 312 324 334 341 350 348 352 358 358 359 359 354 355 357 356
301 302 302 303 305 307 308 307 307 308 308 309 308 302 294 285 285 287 282 275 277 282 285 279 275 274 280 289 301 317 330 340 352 359 360 358 352 344 338 334 331 331 332
298 301 304 306 308 308 308 307 307 306 306 305 306 303 296 289 286 284 272 263 265 269 269 263 258 257 259 261 268 287 312 326 332 333 331 327 323 318 315 312 308 306 305
298 302 304 306 307 307 306 306 305 305 304 303 302 299 295 291 288 285 276 269 260 255 252 246 239 234 234 246 260 278 296 307 312 313 311 309 305 301 298 295 293 294 295
299 303 305 307 308 309 308 306 305 304 302 301 296 291 289 289 287 282 273 260 251 243 237 232 227 228 241 251 265 282 295 302 306 307 306 304 300 296 292 289 290 290 291
303 306 308 310 309 307 306 304 302 301 300 297 289 290 288 286 284 276 265 254 245 236 230 227 228 240 249 262 276 288 296 302 305 304 301 297 294 291 289 288 287 286 287
305 307 308 309 308 306 306 305 302 299 296 291 288 286 282 280 277 270 258 247 238 232 230 231 242 251 262 274 285 293 299 301 300 297 291 286 282 279 278 277 277 283 288
304 306 307 307 307 306 306 306 304 300 297 292 288 284 281 278 272 265 256 248 241 235 234 244 255 264 274 284 291 296 298 296 293 285 277 273 270 270 269 271 274 278 282
300 302 302 303 304 304 303 303 303 301 299 294 289 285 280 276 270 264 258 252 248 245 249 260 269 277 284 289 294 294 293 289 279 268 266 266 266 268 270 272 274 275 276
298 299 299 301 303 303 302 302 300 300 298 294 291 286 281 276 271 267 264 261 258 255 256 262 270 277 283 289 291 290 286 275 266 262 261 262 263 266 268 272 274 275 275
Wind_Speed_850mb
18 16 12 9 8 9 11 14 18 21 25 29 33 37 41 44 46 50 52 56 59 63 65 69 74 75 79 79 79 84 82 82 94 125 99 96 98 97 97 95 88 85 83
14 12 10 10 11 12 15 19 23 28 32 36 41 45 48 51 55 58 62 64 68 72 73 76 77 77 80 80 80 82 84 86 91 104 116 98 101 96 103 102 91 87 83
13 11 10 10 13 17 22 26 30 34 38 43 48 52 55 57 60 62 66 69 72 75 77 80 83 82 84 83 81 81 83 84 85 95 109 103 102 105 103 97 96 89 89
9 6 6 10 15 20 24 29 34 38 43 46 50 53 56 58 62 66 69 72 75 78 80 82 83 84 84 84 80 76 75 80 84 88 96 102 99 96 98 99 101 96 95
5 3 7 13 20 26 30 34 38 42 45 49 52 53 55 58 63 68 71 74 77 79 78 79 82 83 83 78 72 77 76 81 85 88 92 91 93 87 93 97 98 95 95
2 6 14 22 30 36 40 44 47 51 55 57 59 63 64 65 69 74 79 84 84 82 84 83 82 82 81 80 76 66 66 74 81 83 88 91 97 92 91 95 93 89 82
5 13 21 30 36 41 46 50 53 56 60 63 65 69 73 75 78 81 83 84 85 82 81 82 84 82 79 79 78 73 69 65 67 76 84 89 94 91 86 85 87 84 72
11 20 28 34 40 46 51 54 57 60 64 66 67 70 75 76 79 82 85 85 86 87 85 81 75 73 70 70 72 75 75 74 69 66 71 77 78 78 70 65 59 55 49
18 26 34 41 46 50 53 55 58 63 65 67 70 72 73 72 72 74 77 80 82 82 80 78 72 68 65 63 67 72 75 74 68 60 57 59 60 59 54 44 42 37 33
25 32 39 44 49 53 57 60 63 66 69 70 72 74 75 74 68 70 73 76 78 76 75 72 64 59 59 59 64 67 68 65 57 57 47 43 38 33 25 19 19 17 19
32 37 42 48 54 58 61 62 65 67 70 74 77 77 77 74 71 68 68 69 69 71 70 69 63 59 61 60 54 50 48 47 44 38 29 25 20 12 9 6 1 3 4
37 42 47 52 55 58 62 65 67 70 75 77 78 79 78 77 74 69 62 61 60 60 59 58 58 55 48 41 36 35 34 31 26 18 13 13 13 14 14 12 6 2 1
40 45 48 51 56 60 65 68 70 71 74 78 77 79 81 78 74 67 61 56 53 47 47 46 44 38 32 31 31 28 27 22 16 12 12 12 15 18 18 16 15 12 10
39 44 50 55 59 63 67 68 71 71 74 76 76 75 77 78 73 62 59 52 45 39 35 32 29 24 24 29 26 21 19 17 12 11 13 15 16 16 16 17 15 15 14
42 48 53 58 62 67 70 72 74 72 69 71 71 68 70 74 69 52 49 44 37 33 30 24 20 17 16 19 22 20 19 21 21 17 14 14 16 17 17 16 14 13 12
43 47 51 57 61 64 68 70 68 71 71 69 65 61 65 62 62 50 42 37 35 29 27 23 19 15 11 7 12 14 13 12 13 13 13 14 14 14 14 13 12 10 9
42 47 52 57 61 64 67 71 78 75 74 73 65 60 56 55 54 49 39 39 34 31 28 25 21 15 8 9 12 12 14 14 13 12 10 9 9 10 11 10 9 9 9
43 49 54 58 62 65 68 72 75 79 84 81 68 56 50 48 51 48 36 35 40 35 30 24 19 15 11 10 10 10 10 9 9 10 11 11 12 12 12 12 12 13 12
45 50 55 60 63 66 70 71 71 72 71 71 66 55 46 46 48 47 41 43 47 41 33 26 20 16 11 9 7 6 6 8 10 12 14 15 16 16 15 14 14 13 13
46 50 54 58 61 62 63 65 65 63 63 59 55 52 48 47 47 47 44 42 43 42 35 28 22 17 14 13 11 10 11 14 16 18 19 20 19 19 18 17 16 16 15
46 48 51 54 57 59 61 60 59 56 55 51 45 49 48 46 45 44 41 38 37 36 33 29 24 20 20 17 15 16 18 21 24 25 25 24 23 20 18 16 14 13 12
45 47 49 52 54 54 54 53 53 51 47 43 47 46 44 42 39 37 35 35 35 33 31 28 23 22 20 19 19 22 25 28 29 30 29 25 21 18 15 12 10 9 8
44 46 47 47 48 49 49 48 47 45 43 42 43 42 39 38 36 33 31 31 31 30 29 23 22 24 23 23 25 28 30 33 32 31 26 21 17 15 12 10 8 7 7
42 42 44 45 45 44 44 45 43 42 40 38 39 38 37 36 36 34 32 32 32 30 25 23 27 26 27 28 31 34 36 36 32 27 21 19 16 14 12 11 10 10 10
39 39 41 42 41 40 40 38 38 38 38 36 35 35 34 33 33 32 32 33 33 30 25 28 29 30 32 35 39 40 38 35 28 24 23 21 19 17 16 15 15 14 15
36 38 39 39 39 39 38 36 35 35 34 34 33 33 33 32 33 33 34 35 36 34 33 35 37 40 44 43 44 44 39 33 30 28 26 25 23 21 22 21 21 21 21
Wind_Direction_850mb
113 104 90 70 50 23 6 358 349 345 340 337 335 332 329 327 323 320 317 315 312 311 309 305 303 301 296 293 286 285 281 278 273 284 283 285 289 286 289 290 292 288 288
108 96 82 60 42 25 9 357 351 345 340 336 333 330 328 325 323 320 318 317 315 314 313 310 308 306 302 298 292 288 285 279 280 278 286 284 288 288 291 296 290 291 290
99 80 59 34 16 3 354 345 339 334 329 326 326 326 324 323 321 319 317 316 315 314 313 311 310 308 305 303 298 290 282 285 282 282 285 286 288 288 291 290 291 292 292
103 73 30 360 351 345 339 334 331 331 330 327 326 326 326 325 323 320 318 316 314 312 310 308 308 307 306 305 303 298 293 290 287 285 285 287 288 288 289 290 291 293 295
124 39 5 351 347 344 338 333 331 329 328 327 325 324 323 324 322 320 318 317 316 314 313 311 309 307 307 304 301 298 294 292 289 287 285 284 284 286 287 291 291 294 294
85 13 2 354 348 342 337 332 329 327 326 325 324 323 323 323 323 321 320 319 319 318 316 314 312 310 308 306 305 298 290 291 292 293 292 289 288 289 290 290 291 291 291
0 355 348 342 338 335 331 327 324 323 324 323 323 322 321 322 320 319 318 317 317 317 315 314 311 310 309 308 306 305 301 296 290 290 289 288 290 290 290 287 288 290 289
321 327 326 326 325 324 323 321 319 318 318 318 317 316 316 318 318 318 318 318 318 317 316 315 312 311 311 311 310 307 305 303 300 294 291 290 291 292 289 288 284 283 277
305 312 314 315 317 318 317 316 315 313 312 312 312 313 314 316 317 317 317 316 316 316 314 313 315 315 317 316 311 308 307 306 307 307 303 300 298 296 289 290 277 271 270
296 303 309 313 315 315 314 313 311 310 310 310 311 313 313 313 314 315 316 315 315 315 315 315 316 315 312 312 312 312 311 314 315 314 313 309 308 306 291 277 282 278 267
294 301 306 310 312 311 310 310 310 311 311 312 312 312 311 312 313 315 314 314 315 316 316 318 319 319 316 314 312 311 315 315 313 318 326 333 340 344 331 332 87 150 93
293 301 305 308 309 309 309 311 312 312 311 311 311 310 310 310 311 314 315 313 313 313 315 317 317 319 321 325 325 325 323 323 330 348 351 4 14 27 40 41 50 20 301
297 300 303 306 307 308 308 308 307 308 309 309 310 309 309 310 311 316 314 312 312 312 315 318 319 323 328 335 337 341 339 351 9 5 8 35 56 60 58 63 66 58 67
298 303 307 308 307 306 306 308 308 310 310 308 307 305 306 306 309 315 314 313 313 315 319 322 326 333 340 338 336 349 20 25 37 37 67 67 56 47 37 35 39 48 51
304 307 307 308 309 311 310 309 308 308 308 308 306 303 302 302 304 309 306 305 306 314 320 320 322 329 350 21 37 36 57 69 71 63 49 34 22 17 18 22 26 31 49
304 307 309 309 310 310 309 309 308 308 308 308 307 301 299 290 293 296 299 293 295 310 308 306 310 308 331 16 29 31 31 31 28 14 2 357 356 359 6 11 14 17 27
305 306 305 305 305 305 307 307 307 306 307 308 309 304 295 286 289 291 293 282 289 295 293 291 287 296 304 301 312 324 334 341 350 348 352 358 358 359 359 354 355 357 356
301 302 302 303 305 307 308 307 307 308 308 309 308 302 294 285 285 287 282 275 277 282 285 279 275 274 280 289 301 317 330 340 352 359 360 358 352 344 338 334 331 331 332
298 301 304 306 308 308 308 307 307 306 306 305 306 303 296 289 286 284 272 263 265 269 269 263 258 257 259 261 268 287 312 326 332 333 331 327 323 318 315 312 308 306 305
298 302 304 306 307 307 306 306 305 305 304 303 302 299 295 291 288 285 276 269 260 255 252 246 239 234 234 246 260 278 296 307 312 313 311 309 305 301 298 295 293 294 295
299 303 305 307 308 309 308 306 305 304 302 301 296 291 289 289 287 282 273 260 251 243 237 232 227 228 241 251 265 282 295 302 306 307 306 304 300 296 292 289 290 290 291
303 306 308 310 309 307 306 304 302 301 300 297 289 290 288 286 284 276 265 254 245 236 230 227 228 240 249 262 276 288 296 302 305 304 301 297 294 291 289 288 287 286 287
305 307 308 309 308 306 306 305 302 299 296 291 288 286 282 280 277 270 258 247 238 232 230 231 242 251 262 274 285 293 299 301 300 297 291 286 282 279 278 277 277 283 288
304 306 307 307 307 306 306 306 304 300 297 292 288 284 281 278 272 265 256 248 241 235 234 244 255 264 274 284 291 296 298 296 293 285 277 273 270 270 269 271 274 278 282
300 302 302 303 304 304 303 303 303 301 299 294 289 285 280 276 270 264 258 252 248 245 249 260 269 277 284 289 294 294 293 289 279 268 266 266 266 268 270 272 274 275 276
298 299 299 301 303 303 302 302 300 300 298 294 291 286 281 276 271 267 264 261 258 255 256 262 270 277 283 289 291 290 286 275 266 262 261 262 263 266 268 272 274 275 275